Zurück zum Katalog

GAOFEN 3 DEB

AktivSSO
NORAD 42678·DEBRIS·🇨🇳 China

Gestartet Aug 9, 2016 von Taiyuan Satellite Launch Center

Loading…

Nächste Überflüge (nächste 24 Stunden)

TLE

AktuellSource: Space-Track

Epoche: Sep 14, 2026, 18:45 UTC

1 42678U 16049C   26257.78161930  .00000102  00000-0  40012-4 0  9998
2 42678  98.3170 267.6678 0009840  81.1767 279.0539 14.46794372526870

Verfolge GAOFEN 3 DEB in Echtzeit mit AllMySat

Download on the App Store